| time (UTC) | temp F | wind direction | speed MPH | gust MPH | rain 1hr in | rain 24hr in | rain mn in | humidity % | barometer mb |
| 20260905171636 | 74 | 57 | 1.0 | 6.0 | 0.00 | 0.00 | 0.00 | 83 | 1018.2 |
| 20260905170108 | 72 | 42 | 0.0 | 3.0 | 0.00 | 0.00 | 0.00 | 86 | 1018.3 |
| 20260905164606 | 71 | 37 | 1.0 | 4.0 | 0.00 | 0.00 | 0.00 | 87 | 1018.6 |
| 20260905163102 | 70 | 67 | 1.0 | 6.0 | 0.00 | 0.00 | 0.00 | 91 | 1018.5 |
| 20260905161604 | 68 | 86 | 0.0 | 4.0 | 0.00 | 0.00 | 0.00 | 94 | 1018.4 |
| 20260905160111 | 67 | 46 | 0.0 | 2.0 | 0.00 | 0.00 | 0.00 | 95 | 1018.3 |
| 20260905154646 | 65 | 82 | 1.0 | 6.0 | 0.00 | 0.00 | 0.00 | 94 | 1018.2 |
| 20260905153104 | 65 | 46 | 1.0 | 4.0 | 0.00 | 0.00 | 0.00 | 95 | 1018.2 |
| 20260905151601 | 64 | 92 | 0.0 | 3.0 | 0.00 | 0.00 | 0.00 | 95 | 1019.1 |
| 20260905150108 | 64 | 39 | 0.0 | 2.0 | 0.00 | 0.00 | 0.00 | 95 | 1018.8 |
| 20260905144609 | 63 | 0 | 0.0 | 1.0 | 0.00 | 0.00 | 0.00 | 95 | 1019.4 |
| 20260905143106 | 63 | 49 | 0.0 | 3.0 | 0.00 | 0.00 | 0.00 | 95 | 1018.8 |
| 20260905141603 | 63 | 31 | 1.0 | 3.0 | 0.00 | 0.00 | 0.00 | 95 | 1018.2 |
| 20260905140107 | 62 | 0 | 1.0 | 3.0 | 0.00 | 0.00 | 0.00 | 95 | 1018.2 |
| 20260905134608 | 62 | 35 | 1.0 | 4.0 | 0.00 | 0.00 | 0.00 | 95 | 1018.3 |
| 20260905133102 | 62 | 45 | 1.0 | 3.0 | 0.00 | 0.00 | 0.00 | 95 | 1018.2 |
| 20260905131602 | 62 | 86 | 1.0 | 5.0 | 0.00 | 0.00 | 0.00 | 94 | 1018.2 |
| 20260905130106 | 62 | 43 | 1.0 | 3.0 | 0.00 | 0.00 | 0.00 | 95 | 1018.1 |
| 20260905124605 | 62 | 48 | 1.0 | 3.0 | 0.00 | 0.00 | 0.00 | 95 | 1017.7 |
| 20260905123105 | 62 | 46 | 1.0 | 3.0 | 0.00 | 0.00 | 0.00 | 95 | 1017.3 |
| 20260905121608 | 62 | 0 | 0.0 | 2.0 | 0.00 | 0.00 | 0.00 | 94 | 1017.2 |
| 20260905120105 | 62 | 0 | 0.0 | 3.0 | 0.00 | 0.00 | 0.00 | 94 | 1017.2 |
| 20260905114610 | 62 | 0 | 1.0 | 4.0 | 0.00 | 0.00 | 0.00 | 94 | 1017.0 |
| 20260905113101 | 62 | 88 | 1.0 | 6.0 | 0.00 | 0.00 | 0.00 | 94 | 1016.8 |
| 20260905111631 | 62 | 45 | 0.0 | 2.0 | 0.00 | 0.00 | 0.00 | 94 | 1016.9 |
| 20260905110112 | 62 | 34 | 1.0 | 3.0 | 0.00 | 0.00 | 0.00 | 94 | 1016.8 |
| 20260905104619 | 62 | 0 | 0.0 | 2.0 | 0.00 | 0.00 | 0.00 | 94 | 1016.9 |
| 20260905103118 | 62 | 0 | 0.0 | 3.0 | 0.00 | 0.00 | 0.00 | 94 | 1016.6 |
| 20260905101623 | 62 | 0 | 0.0 | 3.0 | 0.00 | 0.00 | 0.00 | 94 | 1016.7 |
| 20260905100109 | 62 | 63 | 0.0 | 2.0 | 0.00 | 0.00 | 0.00 | 94 | 1016.4 |
| 20260905094719 | 62 | 90 | 1.0 | 3.0 | 0.00 | 0.00 | 0.00 | 93 | 1015.9 |
| 20260905093132 | 62 | 0 | 1.0 | 4.0 | 0.00 | 0.00 | 0.00 | 93 | 1015.6 |
| 20260905091605 | 62 | 42 | 1.0 | 5.0 | 0.00 | 0.00 | 0.00 | 93 | 1015.7 |
| 20260905090103 | 62 | 43 | 1.0 | 6.0 | 0.00 | 0.00 | 0.00 | 93 | 1015.8 |
| 20260905084625 | 62 | 35 | 1.0 | 5.0 | 0.00 | 0.00 | 0.00 | 93 | 1015.9 |
| 20260905083119 | 63 | 35 | 1.0 | 4.0 | 0.00 | 0.00 | 0.00 | 93 | 1016.1 |
| 20260905081620 | 63 | 58 | 1.0 | 4.0 | 0.00 | 0.00 | 0.00 | 92 | 1016.3 |
| 20260905080121 | 63 | 0 | 0.0 | 4.0 | 0.00 | 0.00 | 0.00 | 92 | 1016.4 |
| 20260905074606 | 63 | 24 | 2.0 | 4.0 | 0.00 | 0.00 | 0.00 | 92 | 1016.5 |
| 20260905073112 | 63 | 80 | 0.0 | 3.0 | 0.00 | 0.00 | 0.00 | 92 | 1016.7 |
| 20260905071604 | 63 | 0 | 1.0 | 3.0 | 0.00 | 0.00 | 0.00 | 92 | 1016.7 |
| 20260905070104 | 63 | 57 | 1.0 | 2.0 | 0.00 | 0.00 | 0.00 | 92 | 1016.6 |
| 20260905064559 | 64 | 0 | 1.0 | 3.0 | 0.00 | 0.00 | 0.00 | 91 | 1016.6 |
| 20260905063108 | 64 | 0 | 0.0 | 3.0 | 0.00 | 0.00 | 0.00 | 91 | 1016.5 |
| 20260905061607 | 64 | 49 | 0.0 | 4.0 | 0.00 | 0.00 | 0.00 | 91 | 1016.5 |
| 20260905060110 | 64 | 90 | 1.0 | 4.0 | 0.00 | 0.00 | 0.00 | 91 | 1016.6 |
| 20260905054608 | 64 | 50 | 0.0 | 5.0 | 0.00 | 0.00 | 0.00 | 91 | 1016.5 |
| 20260905053101 | 64 | 55 | 0.0 | 4.0 | 0.00 | 0.00 | 0.00 | 90 | 1016.5 |
| 20260905051611 | 64 | 46 | 0.0 | 4.0 | 0.00 | 0.00 | 0.00 | 89 | 1016.7 |
| 20260905050107 | 64 | 0 | 0.0 | 2.0 | 0.00 | 0.00 | 0.00 | 88 | 1016.4 |
| 20260905044605 | 64 | 0 | 0.0 | 1.0 | 0.00 | 0.00 | 0.00 | 88 | 1016.5 |
| 20260905043103 | 64 | 0 | 0.0 | 2.0 | 0.00 | 0.00 | 0.00 | 88 | 1016.4 |
| 20260905041611 | 65 | 36 | 0.0 | 2.0 | 0.00 | 0.00 | 0.00 | 88 | 1016.4 |
| 20260905040111 | 65 | 44 | 0.0 | 3.0 | 0.00 | 0.00 | 0.00 | 87 | 1016.4 |
| 20260905034603 | 66 | 50 | 1.0 | 3.0 | 0.00 | 0.00 | 0.00 | 87 | 1016.3 |
| 20260905033109 | 66 | 40 | 1.0 | 4.0 | 0.00 | 0.00 | 0.00 | 86 | 1016.1 |
| 20260905031616 | 66 | 44 | 0.0 | 5.0 | 0.00 | 0.00 | 0.00 | 85 | 1016.1 |
| 20260905030110 | 67 | 9 | 1.0 | 6.0 | 0.00 | 0.00 | 0.00 | 84 | 1016.0 |
| 20260905024612 | 68 | 35 | 2.0 | 5.0 | 0.00 | 0.00 | 0.00 | 83 | 1016.0 |
| 20260905023109 | 69 | 38 | 2.0 | 4.0 | 0.00 | 0.00 | 0.00 | 81 | 1015.6 |
| 20260905021615 | 71 | 42 | 2.0 | 6.0 | 0.00 | 0.00 | 0.00 | 80 | 1015.6 |
| 20260905020104 | 72 | 36 | 1.0 | 5.0 | 0.00 | 0.00 | 0.00 | 79 | 1015.4 |
| 20260905014605 | 74 | 46 | 1.0 | 5.0 | 0.00 | 0.00 | 0.00 | 78 | 1015.3 |
| 20260905013121 | 75 | 44 | 2.0 | 5.0 | 0.00 | 0.00 | 0.00 | 77 | 1015.1 |
| 20260905011624 | 76 | 0 | 1.0 | 3.0 | 0.00 | 0.00 | 0.00 | 75 | 1014.7 |
| 20260905010106 | 78 | 0 | 0.0 | 2.0 | 0.00 | 0.00 | 0.00 | 74 | 1014.6 |
| 20260905004607 | 79 | 0 | 1.0 | 4.0 | 0.00 | 0.00 | 0.00 | 72 | 1014.5 |
| 20260905003102 | 80 | 43 | 1.0 | 3.0 | 0.00 | 0.00 | 0.00 | 71 | 1014.5 |
| 20260905001607 | 81 | 41 | 1.0 | 3.0 | 0.00 | 0.00 | 0.00 | 70 | 1014.4 |
| 20260905000109 | 81 | 5 | 1.0 | 3.0 | 0.00 | 0.00 | 0.00 | 68 | 1014.3 |
| 20260904234607 | 82 | 44 | 1.0 | 4.0 | 0.00 | 0.00 | 0.00 | 67 | 1014.3 |
| 20260904233109 | 83 | 5 | 2.0 | 6.0 | 0.00 | 0.00 | 0.00 | 66 | 1014.3 |
| 20260904231606 | 84 | 46 | 2.0 | 5.0 | 0.00 | 0.00 | 0.00 | 64 | 1014.2 |
| 20260904230112 | 85 | 42 | 1.0 | 5.0 | 0.00 | 0.00 | 0.00 | 63 | 1013.9 |
| 20260904224622 | 85 | 44 | 2.0 | 6.0 | 0.00 | 0.00 | 0.00 | 62 | 1014.0 |
| 20260904223111 | 86 | 50 | 2.0 | 5.0 | 0.00 | 0.00 | 0.00 | 62 | 1013.7 |
| 20260904221628 | 86 | 42 | 2.0 | 6.0 | 0.00 | 0.00 | 0.00 | 62 | 1013.8 |
| 20260904220108 | 87 | 9 | 2.0 | 5.0 | 0.00 | 0.00 | 0.00 | 62 | 1013.7 |
| 20260904214607 | 86 | 0 | 0.0 | 5.0 | 0.00 | 0.00 | 0.00 | 63 | 1013.7 |
| 20260904213102 | 86 | 355 | 2.0 | 5.0 | 0.00 | 0.00 | 0.00 | 63 | 1013.7 |
| 20260904211559 | 86 | 355 | 2.0 | 6.0 | 0.00 | 0.00 | 0.00 | 63 | 1013.6 |
| 20260904210116 | 86 | 39 | 2.0 | 9.0 | 0.00 | 0.00 | 0.00 | 63 | 1013.5 |
| 20260904204609 | 85 | 21 | 2.0 | 9.0 | 0.00 | 0.00 | 0.00 | 64 | 1013.6 |
| 20260904203102 | 85 | 5 | 2.0 | 7.0 | 0.00 | 0.00 | 0.00 | 64 | 1013.8 |
| 20260904201628 | 84 | 38 | 1.0 | 5.0 | 0.00 | 0.00 | 0.00 | 66 | 1013.7 |
| 20260904200123 | 83 | 38 | 2.0 | 5.0 | 0.00 | 0.00 | 0.00 | 67 | 1013.7 |
| 20260904194606 | 82 | 0 | 2.0 | 6.0 | 0.00 | 0.00 | 0.00 | 70 | 1013.8 |
| 20260904193101 | 81 | 360 | 2.0 | 5.0 | 0.00 | 0.00 | 0.00 | 70 | 1014.0 |
| 20260904191600 | 80 | 352 | 2.0 | 5.0 | 0.00 | 0.00 | 0.00 | 72 | 1013.9 |
| 20260904190108 | 79 | 29 | 2.0 | 5.0 | 0.00 | 0.00 | 0.00 | 73 | 1013.9 |
| 20260904184607 | 78 | 40 | 2.0 | 4.0 | 0.00 | 0.00 | 0.00 | 75 | 1014.0 |
| 20260904183123 | 77 | 5 | 2.0 | 5.0 | 0.00 | 0.00 | 0.00 | 77 | 1014.2 |
| 20260904181607 | 76 | 5 | 1.0 | 6.0 | 0.00 | 0.00 | 0.00 | 78 | 1014.2 |
| 20260904180112 | 76 | 39 | 1.0 | 5.0 | 0.00 | 0.00 | 0.00 | 79 | 1014.1 |
| 20260904174608 | 75 | 22 | 2.0 | 8.0 | 0.00 | 0.00 | 0.00 | 81 | 1014.0 |
| 20260904173104 | 75 | 0 | 1.0 | 6.0 | 0.00 | 0.00 | 0.00 | 83 | 1013.8 |